Back to catalog

STARLINK-5914

AliveCommunicationsVLEO
NORAD 55941·PAYLOAD·🇺🇸 United States

Launched Mar 17, 2023 from Vandenberg Space Force Base

Loading…

Next Passes (next 24 hours)

TLE

FreshSource: CelesTrak SupGP

Epoch: Sep 14, 2026, 14:57 UTC

1 55941C 23037AD  26257.62340278  .00066217  00000+0  55499-2 0  2575
2 55941  70.0013 168.2340 0002925 267.0895 215.1178 14.98292808    13

Track STARLINK-5914 in real time with AllMySat

Download on the App Store